Shannon, Ireland

1:02 AM IST on July 26, 2017 (GMT +0100)
Shannon

Weather History for EINN - March, 2014

Change the Weather History Date:

Tuesday, March 25, 2014

  Actual Average Record
Temperature  
Mean Temperature 46 °F -  
Max Temperature 52 °F 54 °F 66 °F (2012)
Min Temperature 39 °F 40 °F 30 °F (2015)
Degree Days  
Heating Degree Days 20    
Moisture  
Dew Point 39 °F    
Average Humidity 77    
Maximum Humidity 93    
Minimum Humidity 49    
Precipitation  
Precipitation 0.12 in 0.08 in - ()
Sea Level Pressure  
Sea Level Pressure 29.89 in    
Wind  
Wind Speed 9 mph ()    
Max Wind Speed 21 mph    
Max Gust Speed -    
Visibility 7.9 miles    
Events Rain    
Averages and records for this station are not official NWS values.
T = Trace of Precipitation, MM = Missing Value Source: Averaged Metar Reports

Daily Weather History Graph

Daily Weather History Graph

Search for Another Location

Airport or City:

Trip Planner

Search our weather history database for the weather conditions in past years. The results will help you decide how hot, cold, wet, or windy it might be!

Date:

Astronomy

Mar. 25, 2014 Rise Set
Actual Time 6:26 AM GMT 6:57 PM GMT
Civil Twilight 5:52 AM GMT 7:32 PM GMT
Nautical Twilight 5:11 AM GMT 8:13 PM GMT
Astronomical Twilight 4:28 AM GMT 8:56 PM GMT
Moon 3:18 AM GMT (3/25) 12:33 PM GMT (3/25)
Length of Visible Light 13h 39m
Length of Day
12h 30m
Waning Crescent, 34% of the Moon is Illuminated
Mar 25
Waning Crescent
Mar 30
New
Apr 7
First Quarter
Apr 15
Full
Apr 22
Last Quarter

Hourly Weather History & Observations

Time (GMT) Temp. Windchill Dew Point Humidity Pressure Visibility Wind Dir Wind Speed Gust Speed Precip Events Conditions
12:00 AM 44 °F - 38 °F 74% 29.55 in 12 mi SSW 8.9 mph - -   Partly Cloudy
12:00 AM 42.8 °F 37.5 °F 39.2 °F 87% 29.53 in 6.2 mi SSW 9.2 mph - N/A   Partly Cloudy
12:30 AM 42.8 °F 37.5 °F 39.2 °F 87% 29.53 in 6.2 mi South 9.2 mph - N/A   Partly Cloudy
1:00 AM 44 °F - 38 °F 74% 29.55 in 12 mi South 6.7 mph - -   Mostly Cloudy
1:00 AM 42.8 °F 38.6 °F 39.2 °F 87% 29.53 in 6.2 mi South 6.9 mph - N/A   Mostly Cloudy
1:30 AM 42.8 °F 38.6 °F 37.4 °F 81% 29.53 in 6.2 mi South 6.9 mph - N/A   Mostly Cloudy
2:00 AM 42 °F - 38 °F 81% 29.56 in 12 mi SSE 6.7 mph - -   Mostly Cloudy
2:00 AM 42.8 °F 38.6 °F 37.4 °F 81% 29.53 in 6.2 mi SSE 6.9 mph - N/A   Mostly Cloudy
2:30 AM 42.8 °F 38.6 °F 39.2 °F 87% 29.53 in 5.0 mi SSE 6.9 mph - N/A Rain Light Rain
3:00 AM 42 °F - 39 °F 83% 29.56 in 6 mi SE 6.7 mph - - Rain Light Rain
3:00 AM 42.8 °F 38.6 °F 39.2 °F 87% 29.53 in 5.6 mi SE 6.9 mph - N/A Rain Light Rain
3:30 AM 41.0 °F 38.0 °F 39.2 °F 93% 29.56 in 6.2 mi East 4.6 mph - N/A Rain Light Rain
4:00 AM 42 °F - 39 °F 87% 29.58 in 7 mi ENE 4.5 mph - - Rain Light Rain
4:00 AM 41.0 °F 39.0 °F 39.2 °F 93% 29.56 in 6.2 mi North 3.5 mph - N/A Rain Light Rain
4:30 AM 41.0 °F 39.0 °F 39.2 °F 93% 29.59 in 5.0 mi NNW 3.5 mph - N/A Rain Rain
5:00 AM 41 °F - 39 °F 92% 29.63 in 5 mi North 4.5 mph - - Rain Light Rain
5:00 AM 41.0 °F 38.0 °F 39.2 °F 93% 29.62 in 5.0 mi North 4.6 mph - N/A Rain Light Rain
5:30 AM 41.0 °F - 39.2 °F 93% 29.62 in 6.2 mi NE 2.3 mph - N/A Rain Light Rain
6:00 AM 43 °F - 37 °F 74% 29.67 in 9 mi NW 8.9 mph - - Rain Light Rain
6:00 AM 42.8 °F 38.0 °F 37.4 °F 81% 29.65 in 6.2 mi NW 8.1 mph - N/A Rain Light Rain
6:30 AM 42.8 °F 36.6 °F 39.2 °F 87% 29.68 in 6.2 mi West 11.5 mph - N/A Rain Light Rain
7:00 AM 43 °F - 39 °F 79% 29.73 in 8 mi NW 11.2 mph - - Rain Light Rain
7:00 AM 42.8 °F 37.0 °F 39.2 °F 87% 29.71 in 6.2 mi NW 10.4 mph - N/A Rain Light Rain
7:30 AM 42.8 °F 39.3 °F 39.2 °F 87% 29.74 in 6.2 mi NNW 5.8 mph - N/A Rain Light Rain
8:00 AM 43 °F - 40 °F 83% 29.78 in 7 mi NNW 8.9 mph - - Rain Light Rain
8:00 AM 42.8 °F 37.5 °F 39.2 °F 87% 29.77 in 6.2 mi NNW 9.2 mph - N/A Rain Light Rain
8:30 AM 42.8 °F 37.0 °F 39.2 °F 87% 29.80 in 6.2 mi NW 10.4 mph - N/A Rain Light Rain
9:00 AM 44 °F - 42 °F 89% 29.82 in 10 mi NNW 6.7 mph - - Rain Light Rain
9:00 AM 44.6 °F 41.4 °F 41.0 °F 87% 29.80 in 6.2 mi NNW 5.8 mph - N/A   Overcast
9:30 AM 44.6 °F 41.4 °F 42.8 °F 93% 29.83 in 6.2 mi WNW 5.8 mph - N/A Rain Light Rain Showers
10:00 AM 46 °F - 43 °F 84% 29.86 in 11 mi NW 8.9 mph - - Rain Light Rain Showers
10:00 AM 46.4 °F 41.9 °F 42.8 °F 87% 29.86 in 6.2 mi NW 9.2 mph - N/A   Scattered Clouds
10:30 AM 50.0 °F - 42.8 °F 76% 29.86 in 6.2 mi NW 19.6 mph - N/A   Mostly Cloudy
11:00 AM 49 °F - 41 °F 64% 29.90 in 19 mi NW 17.9 mph - -   Partly Cloudy
11:00 AM 48.2 °F - 41.0 °F 76% 29.89 in 6.2 mi NW 18.4 mph - N/A   Mostly Cloudy
11:30 AM 50.0 °F - 39.2 °F 66% 29.92 in 6.2 mi NW 18.4 mph - N/A   Mostly Cloudy
12:00 PM 51 °F - 41 °F 59% 29.94 in 25 mi NW 15.7 mph - -   Partly Cloudy
12:00 PM 50.0 °F - 41.0 °F 71% 29.92 in 6.2 mi NW 16.1 mph - N/A   Mostly Cloudy
12:30 PM 51.8 °F - 41.0 °F 67% 29.95 in 6.2 mi NW 20.7 mph - N/A   Mostly Cloudy
1:00 PM 50 °F - 40 °F 58% 29.97 in 25 mi North 11.2 mph - -   Mostly Cloudy
1:00 PM 50.0 °F - 39.2 °F 66% 29.95 in 6.2 mi North 11.5 mph - N/A   Mostly Cloudy
1:30 PM 50.0 °F - 39.2 °F 66% 29.98 in 6.2 mi North 17.3 mph - N/A   Mostly Cloudy
2:00 PM 50 °F - 40 °F 58% 30.00 in 25 mi NW 17.9 mph - -   Partly Cloudy
2:00 PM 50.0 °F - 39.2 °F 66% 29.98 in 6.2 mi NW 18.4 mph - N/A   Scattered Clouds
2:30 PM 51.8 °F - 41.0 °F 67% 30.01 in 6.2 mi WNW 18.4 mph - N/A   Partly Cloudy
3:00 PM 52 °F - 39 °F 51% 30.03 in 25 mi NW 17.9 mph - -   Mostly Cloudy
3:00 PM 51.8 °F - 39.2 °F 62% 30.01 in 6.2 mi NW 18.4 mph - N/A   Scattered Clouds
3:30 PM 51.8 °F - 39.2 °F 62% 30.04 in 6.2 mi NW 18.4 mph - N/A   Partly Cloudy
4:00 PM 52 °F - 38 °F 49% 30.06 in 19 mi WNW 20.1 mph - -   Scattered Clouds
4:00 PM 51.8 °F - 39.2 °F 62% 30.04 in 6.2 mi WNW 19.6 mph - N/A   Partly Cloudy
4:30 PM 51.8 °F - 39.2 °F 62% 30.06 in 6.2 mi WNW 16.1 mph - N/A   Partly Cloudy
5:00 PM 50 °F - 39 °F 57% 30.09 in 19 mi WNW 20.1 mph - -   Scattered Clouds
5:00 PM 50.0 °F - 39.2 °F 66% 30.06 in 6.2 mi WNW 20.7 mph - N/A   Partly Cloudy
5:30 PM 50.0 °F - 39.2 °F 66% 30.09 in 6.2 mi WNW 16.1 mph - N/A   Partly Cloudy
6:00 PM 49 °F - 38 °F 54% 30.12 in 25 mi NW 15.7 mph - -   Scattered Clouds
6:00 PM 48.2 °F - 37.4 °F 66% 30.12 in 6.2 mi NW 15.0 mph - N/A   Partly Cloudy
6:30 PM 48.2 °F - 37.4 °F 66% 30.12 in 6.2 mi NW 15.0 mph - N/A   Partly Cloudy
7:00 PM 46 °F - 38 °F 67% 30.17 in 25 mi NW 11.2 mph - -   Scattered Clouds
7:00 PM 46.4 °F 41.5 °F 39.2 °F 76% 30.15 in 6.2 mi NW 10.4 mph - N/A   Partly Cloudy
7:30 PM 44.6 °F 40.2 °F 39.2 °F 81% 30.18 in 6.2 mi NW 8.1 mph - N/A   Partly Cloudy
8:00 PM 44 °F - 38 °F 73% 30.20 in 19 mi NW 8.9 mph - -   Scattered Clouds
8:00 PM 44.6 °F 40.2 °F 39.2 °F 81% 30.18 in 6.2 mi NW 8.1 mph - N/A   Partly Cloudy
8:30 PM 42.8 °F 38.0 °F 37.4 °F 81% 30.21 in 6.2 mi WNW 8.1 mph - N/A   Partly Cloudy
9:00 PM 43 °F - 38 °F 75% 30.24 in 19 mi WNW 8.9 mph - -   Scattered Clouds
9:00 PM 42.8 °F 37.5 °F 37.4 °F 81% 30.21 in 6.2 mi WNW 9.2 mph - N/A   Partly Cloudy
9:30 PM 42.8 °F 37.5 °F 37.4 °F 81% 30.24 in 6.2 mi NW 9.2 mph - N/A   Partly Cloudy
10:00 PM 41 °F - 37 °F 80% 30.26 in 16 mi WNW 11.2 mph - -   Scattered Clouds
10:00 PM 41.0 °F 34.7 °F 37.4 °F 87% 30.24 in 6.2 mi WNW 10.4 mph - N/A   Partly Cloudy
10:30 PM 41.0 °F 35.8 °F 37.4 °F 87% 30.24 in - NW 8.1 mph - N/A   Clear
11:00 PM 40 °F - 37 °F 83% 30.27 in 16 mi NW 6.7 mph - -  
11:00 PM 39.2 °F 33.6 °F 37.4 °F 93% 30.27 in - NW 8.1 mph - N/A   Clear
11:30 PM 41.0 °F 35.8 °F 37.4 °F 87% 30.27 in - NNW 8.1 mph - N/A   Clear